TELSTAR 11N

Last updated on Tue Sep 22 2026 00:03:11 GMT+0000 (Coordinated Universal Time)

1 34111U 09009A 26264.41037699 -.00000254 00000+0 00000+0 0 9997 2 34111 0.0172 179.2201 0002572 358.7955 292.4777 1.00272407 47217
UTC large
Height (km)
Speed (km/s)
/
Latitude / Longitude
Inclination (degrees)
Orbital Period (minutes)
Azimuth
Elevation
Range (km)
Doppler Factor

Next 0 passes for location: London (51.5072 / 0.1276)

No passes found over London.
TELSTAR 11N